Location: Rounton
(54.4000°N, 1.3500°W)
Time: 00:22:38
(UTC+01:00)

Vanguard 1 - Pass Details

Date: 24 February 2024
Orbit: 653 x 3825 km, 34.2° (Epoch: 22 April)

Event Time Altitude Azimuth Distance (km) Brightness Sun altitude
Rises 21:20:24 0° 239° (WSW) 5,995 14.4 -32.8°
Reaches altitude 10° 21:24:09 10° 231° (SW) 5,365 13.9 -33.3°
Maximum altitude 21:39:37 40° 170° (S) 4,487 12.9 -35.0°
Enters shadow 21:40:08 40° 168° (SSE) 4,512 12.9 -35.1°
Drops below altitude 10° 21:59:49 10° 112° (ESE) 6,904 - -37.2°
Sets 22:05:32 0° 106° (ESE) 7,809 - -37.8°
